Location: Garshuizen
(53.3675°N, 6.7248°E)
Time: 08:35:49
(UTC+00:00)

Meteor 1-5 Rocket - Pass Details

Date: 15 May 2026
Orbit: 788 x 913 km, 81.2° (Epoch: 6 June)

Event Time Altitude Azimuth Distance (km) Brightness Sun altitude
Rises 21:04:12 0° 345° (NNW) 3,443 8.9 -11.1°
Reaches altitude 10° 21:06:36 10° 345° (NNW) 2,520 7.9 -11.3°
Maximum altitude 21:12:21 82° 260° (W) 902 4.4 -11.8°
Enters shadow 21:17:38 13° 173° (S) 2,345 6.0 -12.2°
